{"data":{"norad_id":51128,"epoch":"2026-09-20T03:37:02.121600Z","epoch_age_seconds":78625,"freshness":"FRESH","line1":"1 51128U 22005AA  26263.15071900 -.00000652  00000+0 -77790-5 0  9997","line2":"2 51128  53.1611 139.9019 0001204  84.2319 275.8822 15.35404269258167","mean_motion":15.35404269,"eccentricity":0.0001204,"inclination_deg":53.1611,"raan_deg":139.9019,"arg_perigee_deg":84.2319,"mean_anomaly_deg":275.8822,"bstar":-7.779e-6,"rev_number":25816,"period_min":93.786374642417,"perigee_km":458.89669019399,"apogee_km":460.54324615193,"semimajor_km":6837.856968173,"source":"CELESTRAK","updated_at":"2026-09-20T09:00:39.588514Z"}}